Home > Time Zones > World Clock > Weather > Norway > Alta > Past weeks

Flag for Norway Weather past 2 weeks in Alta, Norway

Now
39 °F

Chilly.


Feels Like: 34 °F
Forecast: 37 / 42 °F
Wind: 8 mph from West

Location: Alta Lufthavn


UV Index: 0 (Low)

Visibility: N/A


Pressure: 30.31 "Hg

Humidity: 67%

Dew point: 29 °F

Location of AltaLocation

Historic Weather in Alta

°F

Alta temperature yesterday

Maximum temperature yesterday: 37 °F (at 12:00 AM)
Minimum temperature yesterday: 30 °F (at 11:00 PM)
Average temperature yesterday: 33 °F

Past Weeks' High & Low Weather Summary

 TemperatureHumidityPressure
High46 °F (Apr 19, 1:00 PM)95% (Apr 13, 9:00 PM)30.42 "Hg (Apr 13, 9:00 PM)
Low16 °F (Apr 8, 10:00 PM)44% (Apr 9, 1:00 PM)29.03 "Hg (Apr 13, 4:00 AM)
Average36 °F67%29.69 "Hg
* Reported Apr 8 8:00 PM — Apr 23 8:00 PM, Alta, Weather by CustomWeather, © 2014

Note: Actual official high and low records may vary slightly from our data, if they occured in-between our weather recording intervals... More about our weather records

Advertising

Historic Weather Conditions — Data for Previous 24 hours

 ConditionsComfort  
Time TempWeatherWind HumidityBarometerVisibility
8:00 PM
Apr 23
39 °FChilly.8 mph67%30.31 "HgN/A
7:00 PM39 °FChilly.7 mph65%30.32 "HgN/A
6:00 PM38 °FChilly.7 mph68%30.35 "HgN/A
5:00 PM37 °FChilly.3 mph69%30.37 "HgN/A
4:00 PM36 °FChilly.9 mph68%30.39 "HgN/A
3:00 PM37 °FChilly.7 mph66%30.41 "HgN/A
2:00 PM35 °FChilly.7 mph68%30.41 "HgN/A
1:00 PM35 °FChilly.6 mph67%30.42 "HgN/A
12:00 PM34 °FChilly.2 mph77%30.41 "HgN/A
11:00 AM34 °FChilly.5 mph76%30.40 "HgN/A
10:00 AM33 °FChilly.6 mph69%30.40 "HgN/A
9:00 AM33 °FChilly.9 mph63%30.39 "HgN/A
8:00 AM31 °FChilly.8 mph73%30.37 "HgN/A
7:00 AM30 °FChilly.7 mph86%30.36 "HgN/A
6:00 AM29 °FChilly.8 mph92%30.36 "HgN/A
5:00 AM29 °FChilly.5 mph95%30.34 "HgN/A
4:00 AM29 °FChilly.8 mph90%30.32 "HgN/A
3:00 AM30 °FChilly.12 mph95%30.31 "HgN/A
2:00 AM30 °FChilly.8 mph84%30.28 "HgN/A
1:00 AM31 °FChilly.10 mph83%30.26 "HgN/A
12:00 AM31 °FChilly.10 mph91%30.24 "HgN/A
11:00 PM
Apr 22
30 °FChilly.13 mph94%30.22 "HgN/A
10:00 PM31 °FChilly.12 mph90%30.19 "HgN/A
9:00 PM32 °FChilly.12 mph86%30.17 "HgN/A
8:00 PM33 °FChilly.13 mph74%30.14 "HgN/A
Weather by CustomWeather, © 2014

See weather overview